Back to catalog

CZ-6A DEB

AliveSSO
NORAD 54617·DEBRIS·🇨🇳 China

Launched Nov 11, 2022 from Taiyuan Satellite Launch Center

Loading…

Next Passes (next 24 hours)

TLE

FreshSource: Space-Track

Epoch: Sep 13, 2026, 23:03 UTC

1 54617U 22151NT  26256.96049455  .00001123  00000-0  54535-3 0  9999
2 54617  98.8179 272.3423 0026391  55.9811 304.3866 14.20174214197205

Track CZ-6A DEB in real time with AllMySat

Download on the App Store